CW2057 Weather Reports


Display with metric or nautical units.
time (UTC)temp
F
wind
direction
speed
MPH
gust
MPH
rain 1hr
in
rain 24hr
in
rain mn
in
humidity
%
barometer
mb
20260901205624 94 242 3.0 10.0 0.00 0.00 0.00 56 1015.1
20260901205133 94 322 4.0 8.0 0.00 0.00 0.00 57 1015.2
20260901204622 94 286 2.0 7.0 0.00 0.00 0.00 57 1015.1
20260901204130 94 324 0.0 8.0 0.00 0.00 0.00 57 1015.1
20260901203638 94 319 3.0 8.0 0.00 0.00 0.00 56 1015.2
20260901203126 93 308 3.0 9.0 0.00 0.00 0.00 56 1015.2
20260901202634 93 290 1.0 9.0 0.00 0.00 0.00 58 1015.3
20260901202123 93 326 4.0 11.0 0.00 0.00 0.00 57 1015.4
20260901201633 93 357 2.0 11.0 0.00 0.00 0.00 58 1015.3
20260901201123 93 326 3.0 8.0 0.00 0.00 0.00 58 1015.4
20260901200651 93 281 1.0 8.0 0.00 0.00 0.00 58 1015.5
20260901200140 93 307 3.0 9.0 0.00 0.00 0.00 57 1015.5
20260901195644 94 318 3.0 10.0 0.00 0.00 0.00 57 1015.4
20260901195152 94 299 4.0 10.0 0.00 0.00 0.00 56 1015.5
20260901194620 94 287 2.0 5.0 0.00 0.00 0.00 58 1015.6
20260901194128 93 295 2.0 6.0 0.00 0.00 0.00 58 1015.8
20260901193617 94 340 1.0 10.0 0.00 0.00 0.00 56 1015.7
20260901193145 94 306 3.0 10.0 0.00 0.00 0.00 55 1015.8
20260901192633 93 301 3.0 7.0 0.00 0.00 0.00 57 1015.8
20260901190625 94 290 2.0 9.0 0.00 0.00 0.00 58 1016.1
20260901190114 93 301 2.0 8.0 0.00 0.00 0.00 58 1016.1
20260901185619 93 287 2.0 10.0 0.00 0.00 0.00 57 1016.1
20260901185148 93 317 3.0 10.0 0.00 0.00 0.00 56 1016.2
20260901184635 94 346 2.0 8.0 0.00 0.00 0.00 55 1016.4
20260901184124 95 345 2.0 8.0 0.00 0.00 0.00 56 1016.4
20260901183632 94 301 3.0 8.0 0.00 0.00 0.00 56 1016.3
20260901183122 94 293 3.0 8.0 0.00 0.00 0.00 56 1016.3
20260901182632 93 338 2.0 8.0 0.00 0.00 0.00 57 1016.3
20260901182119 93 8 0.0 5.0 0.00 0.00 0.00 59 1016.1
20260901181629 93 59 0.0 10.0 0.00 0.00 0.00 59 1016.2
20260901181118 93 286 1.0 10.0 0.00 0.00 0.00 59 1016.3
20260901180628 92 273 2.0 7.0 0.00 0.00 0.00 60 1016.3
20260901180117 92 314 1.0 9.0 0.00 0.00 0.00 62 1016.1
20260901175646 92 344 0.0 9.0 0.00 0.00 0.00 61 1016.1
20260901175114 92 338 0.0 11.0 0.00 0.00 0.00 63 1016.3
20260901174642 92 303 2.0 11.0 0.00 0.00 0.00 62 1016.4
20260901174125 91 7 0.0 3.0 0.00 0.00 0.00 65 1016.4
20260901173633 90 293 0.0 4.0 0.00 0.00 0.00 64 1016.4
20260901173122 90 332 1.0 7.0 0.00 0.00 0.00 64 1016.5
20260901172630 90 281 2.0 7.0 0.00 0.00 0.00 63 1016.5
20260901172119 90 337 1.0 5.0 0.00 0.00 0.00 64 1016.5
20260901171628 90 37 1.0 7.0 0.00 0.00 0.00 63 1016.4
20260901171116 91 355 1.0 7.0 0.00 0.00 0.00 61 1016.4
20260901170626 92 284 3.0 7.0 0.00 0.00 0.00 62 1016.4
20260901170115 91 311 0.0 3.0 0.00 0.00 0.00 66 1016.5
20260901165625 89 225 0.0 3.0 0.00 0.00 0.00 69 1016.5
20260901165113 88 28 0.0 3.0 0.00 0.00 0.00 68 1016.7
20260901164622 88 12 0.0 3.0 0.00 0.00 0.00 69 1016.8
20260901164131 88 321 0.0 0.0 0.00 0.00 0.00 67 1017.1
20260901163640 88 318 0.0 3.0 0.00 0.00 0.00 67 1017.1
20260901163129 88 313 2.0 6.0 0.00 0.00 0.00 65 1017.2
20260901162617 88 288 2.0 6.0 0.00 0.00 0.00 65 1017.2
20260901162126 88 310 2.0 7.0 0.00 0.00 0.00 64 1017.2
20260901161614 89 311 2.0 8.0 0.00 0.00 0.00 63 1017.2
20260901161123 90 300 2.0 8.0 0.00 0.00 0.00 63 1017.3
20260901160633 90 264 1.0 6.0 0.00 0.00 0.00 63 1017.2
20260901160121 90 325 0.0 5.0 0.00 0.00 0.00 62 1017.2
20260901155626 90 297 1.0 6.0 0.00 0.00 0.00 62 1017.4
20260901155116 90 286 1.0 6.0 0.00 0.00 0.00 63 1017.3
20260901154625 90 318 1.0 7.0 0.00 0.00 0.00 63 1017.5
20260901154133 90 271 1.0 7.0 0.00 0.00 0.00 63 1017.5
20260901153622 90 266 2.0 5.0 0.00 0.00 0.00 64 1017.6
20260901153130 89 305 2.0 8.0 0.00 0.00 0.00 63 1017.6
20260901152620 90 305 4.0 11.0 0.00 0.00 0.00 63 1017.6
20260901152129 91 306 5.0 11.0 0.00 0.00 0.00 61 1017.7
20260901151618 91 318 2.0 7.0 0.00 0.00 0.00 62 1017.7
20260901151126 90 291 3.0 7.0 0.00 0.00 0.00 64 1017.7
20260901150615 89 329 4.0 8.0 0.00 0.00 0.00 66 1017.7
20260901150124 89 208 2.0 8.0 0.00 0.00 0.00 65 1017.7
20260901145631 90 300 3.0 9.0 0.00 0.00 0.00 63 1017.7
20260901145120 90 317 1.0 9.0 0.00 0.00 0.00 65 1017.7
20260901144630 89 286 4.0 9.0 0.00 0.00 0.00 66 1017.6
20260901144137 88 279 3.0 8.0 0.00 0.00 0.00 67 1017.5
20260901143626 88 16 2.0 8.0 0.00 0.00 0.00 68 1017.6
20260901143153 87 273 3.0 9.0 0.00 0.00 0.00 69 1017.6
20260901142621 86 336 2.0 9.0 0.00 0.00 0.00 70 1017.7
20260901142126 86 305 3.0 9.0 0.00 0.00 0.00 69 1017.7
20260901141635 86 260 3.0 9.0 0.00 0.00 0.00 71 1017.7
20260901141144 85 328 2.0 7.0 0.00 0.00 0.00 72 1017.7
20260901140630 84 298 3.0 10.0 0.00 0.00 0.00 74 1017.8
20260901140119 84 299 4.0 10.0 0.00 0.00 0.00 74 1017.6
20260901135628 84 301 2.0 7.0 0.00 0.00 0.00 75 1017.6
20260901135117 83 310 1.0 4.0 0.00 0.00 0.00 77 1017.7
20260901134624 82 305 1.0 4.0 0.00 0.00 0.00 77 1017.9
20260901134133 82 302 0.0 4.0 0.00 0.00 0.00 77 1017.7
20260901133622 83 328 2.0 6.0 0.00 0.00 0.00 75 1017.7
20260901133131 83 275 2.0 6.0 0.00 0.00 0.00 76 1017.6
20260901132619 82 312 0.0 5.0 0.00 0.00 0.00 77 1017.5
20260901132148 82 309 1.0 8.0 0.00 0.00 0.00 77 1017.6
20260901131616 82 279 2.0 8.0 0.00 0.00 0.00 77 1017.8
20260901131124 82 301 1.0 8.0 0.00 0.00 0.00 77 1017.9
20260901130633 82 295 3.0 8.0 0.00 0.00 0.00 75 1017.9
20260901130123 83 258 0.0 7.0 0.00 0.00 0.00 76 1017.8
20260901125628 83 278 2.0 7.0 0.00 0.00 0.00 77 1017.8
20260901125117 82 309 0.0 2.0 0.00 0.00 0.00 80 1018.0
20260901124624 80 165 0.0 3.0 0.00 0.00 0.00 81 1018.1
20260901124133 80 165 0.0 3.0 0.00 0.00 0.00 80 1018.3
20260901123623 80 165 0.0 4.0 0.00 0.00 0.00 81 1018.2
20260901123131 80 165 1.0 5.0 0.00 0.00 0.00 82 1018.2
20260901122619 79 317 1.0 5.0 0.00 0.00 0.00 84 1018.3
20260901122130 78 286 0.0 1.0 0.00 0.00 0.00 86 1018.3
20260901121617 78 322 0.0 1.0 0.00 0.00 0.00 86 1018.2
20260901121126 78 315 0.0 1.0 0.00 0.00 0.00 86 1018.2
20260901120654 78 324 0.0 2.0 0.00 0.00 0.00 86 1018.0
20260901120123 78 263 0.0 2.0 0.00 0.00 0.00 87 1017.9
20260901115653 77 342 0.0 1.0 0.00 0.00 0.00 88 1017.9
20260901115119 77 312 0.0 3.0 0.00 0.00 0.00 89 1017.7
20260901114628 76 300 0.0 3.0 0.00 0.00 0.00 90 1017.6
20260901114117 76 299 0.0 3.0 0.00 0.00 0.00 92 1017.6
20260901113626 75 324 0.0 1.0 0.00 0.00 0.00 92 1017.7
20260901113114 75 324 0.0 0.0 0.00 0.00 0.00 92 1017.6
20260901112624 74 324 0.0 0.0 0.00 0.00 0.00 92 1017.6
20260901112127 74 324 0.0 0.0 0.00 0.00 0.00 92 1017.6
20260901111617 73 324 0.0 0.0 0.00 0.00 0.00 92 1017.6
20260901111127 73 324 0.0 0.0 0.00 0.00 0.00 93 1017.7
20260901110616 73 324 0.0 0.0 0.00 0.00 0.00 93 1017.7
20260901110126 73 324 0.0 0.0 0.00 0.00 0.00 93 1017.7
20260901105633 73 324 0.0 0.0 0.00 0.00 0.00 93 1017.7
20260901105122 73 324 0.0 0.0 0.00 0.00 0.00 93 1017.8
20260901104632 73 324 0.0 0.0 0.00 0.00 0.00 93 1017.7
20260901104120 73 324 0.0 0.0 0.00 0.00 0.00 93 1017.5
20260901103630 73 324 0.0 0.0 0.00 0.00 0.00 93 1017.6
20260901103118 73 324 0.0 0.0 0.00 0.00 0.00 93 1017.5
20260901102629 73 324 0.0 0.0 0.00 0.00 0.00 93 1017.5
20260901102118 73 324 0.0 0.0 0.00 0.00 0.00 93 1017.4
20260901101627 73 324 0.0 0.0 0.00 0.00 0.00 93 1017.5
20260901101116 73 324 0.0 0.0 0.00 0.00 0.00 93 1017.5
20260901100624 73 324 0.0 0.0 0.00 0.00 0.00 93 1017.5
20260901100133 73 324 0.0 0.0 0.00 0.00 0.00 93 1017.5
20260901095623 73 324 0.0 0.0 0.00 0.00 0.00 93 1017.6
20260901095133 73 324 0.0 0.0 0.00 0.00 0.00 93 1017.5
20260901094621 73 324 0.0 0.0 0.00 0.00 0.00 92 1017.6
20260901094131 73 324 0.0 0.0 0.00 0.00 0.00 92 1017.3
20260901093620 73 324 0.0 0.0 0.00 0.00 0.00 92 1017.4
20260901093145 74 324 0.0 0.0 0.00 0.00 0.00 92 1017.5
20260901092633 73 324 0.0 0.0 0.00 0.00 0.00 92 1017.4
20260901092142 73 324 0.0 0.0 0.00 0.00 0.00 92 1017.4
20260901091630 73 324 0.0 0.0 0.00 0.00 0.00 92 1017.5
20260901091139 73 324 0.0 0.0 0.00 0.00 0.00 92 1017.6
20260901090627 73 324 0.0 0.0 0.00 0.00 0.00 92 1017.6
20260901090116 73 324 0.0 0.0 0.00 0.00 0.00 92 1017.6
20260901085625 73 324 0.0 0.0 0.00 0.00 0.00 93 1017.7
20260901085114 73 324 0.0 0.0 0.00 0.00 0.00 92 1017.7
20260901084624 73 324 0.0 0.0 0.00 0.00 0.00 92 1017.7
20260901084152 73 324 0.0 0.0 0.00 0.00 0.00 92 1017.7
20260901083621 73 324 0.0 0.0 0.00 0.00 0.00 92 1017.7
20260901083129 73 324 0.0 0.0 0.00 0.00 0.00 92 1017.8
20260901082619 73 324 0.0 0.0 0.00 0.00 0.00 92 1017.7
20260901082129 73 324 0.0 0.0 0.00 0.00 0.00 91 1017.5
20260901081618 73 324 0.0 0.0 0.00 0.00 0.00 90 1017.5
20260901081126 73 324 0.0 0.0 0.00 0.00 0.00 90 1017.5
20260901080616 73 324 0.0 0.0 0.00 0.00 0.00 90 1017.5
20260901080121 73 324 0.0 0.0 0.00 0.00 0.00 90 1017.5
20260901075630 73 324 0.0 0.0 0.00 0.00 0.00 90 1017.6
20260901075119 73 324 0.0 0.0 0.00 0.00 0.00 91 1017.6
20260901074629 73 324 0.0 0.0 0.00 0.00 0.00 90 1017.6
20260901074139 73 324 0.0 0.0 0.00 0.00 0.00 89 1017.5
20260901073628 73 324 0.0 0.0 0.00 0.00 0.00 89 1017.6
20260901073116 74 324 0.0 0.0 0.00 0.00 0.00 89 1017.6
20260901072624 74 324 0.0 0.0 0.00 0.00 0.00 89 1017.7
20260901072133 73 324 0.0 0.0 0.00 0.00 0.00 90 1018.0
20260901071626 73 324 0.0 0.0 0.00 0.00 0.00 90 1018.0
20260901071115 73 324 0.0 0.0 0.00 0.00 0.00 90 1018.1
20260901070622 73 324 0.0 0.0 0.00 0.00 0.00 91 1018.0
20260901070131 73 324 0.0 0.0 0.00 0.00 0.00 91 1018.0
20260901065621 73 324 0.0 0.0 0.00 0.00 0.00 91 1018.2
20260901065131 73 324 0.0 0.0 0.00 0.00 0.00 90 1018.3
20260901064620 74 324 0.0 0.0 0.00 0.00 0.00 90 1018.3
20260901064129 74 324 0.0 0.0 0.00 0.00 0.00 90 1018.4
20260901063618 74 324 0.0 0.0 0.00 0.00 0.00 90 1018.5
20260901063146 74 324 0.0 0.0 0.00 0.00 0.00 90 1018.5
20260901062647 74 324 0.0 0.0 0.00 0.00 0.00 90 1018.5
20260901062116 74 324 0.0 0.0 0.00 0.00 0.00 89 1018.5
20260901061645 74 324 0.0 0.0 0.00 0.00 0.00 90 1018.5
20260901061113 74 324 0.0 0.0 0.00 0.00 0.00 90 1018.6
20260901060642 74 324 0.0 0.0 0.00 0.00 0.00 90 1018.6
20260901060131 74 324 0.0 0.0 0.00 0.00 0.00 90 1018.5
20260901055621 74 324 0.0 0.0 0.00 0.00 0.00 89 1018.5
20260901055128 74 324 0.0 0.0 0.00 0.00 0.00 90 1018.4
20260901054638 74 324 0.0 0.0 0.00 0.00 0.00 90 1018.6
20260901054126 74 324 0.0 0.0 0.00 0.00 0.00 90 1018.6
20260901053615 74 324 0.0 0.0 0.00 0.00 0.00 91 1018.5
20260901053124 74 324 0.0 0.0 0.00 0.00 0.00 91 1018.8
20260901052614 74 324 0.0 0.0 0.00 0.00 0.00 91 1018.8
20260901052124 74 324 0.0 0.0 0.00 0.00 0.00 91 1018.8
20260901051632 74 324 0.0 0.0 0.00 0.00 0.00 90 1018.8
20260901051122 74 324 0.0 0.0 0.00 0.00 0.00 90 1018.8
20260901050644 74 324 0.0 0.0 0.00 0.00 0.00 90 1018.9
20260901050132 74 324 0.0 0.0 0.00 0.00 0.00 90 1018.9
20260901045622 74 324 0.0 0.0 0.00 0.00 0.00 89 1019.0
20260901045131 74 324 0.0 0.0 0.00 0.00 0.00 89 1019.0
20260901044620 74 324 0.0 0.0 0.00 0.00 0.00 89 1019.1
20260901044129 74 324 0.0 0.0 0.00 0.00 0.00 89 1019.1
20260901043618 74 324 0.0 0.0 0.00 0.00 0.00 88 1019.1
20260901043128 75 324 0.0 0.0 0.00 0.00 0.00 87 1019.1
20260901042617 75 324 0.0 0.0 0.00 0.00 0.00 88 1019.3
20260901042125 75 324 0.0 0.0 0.00 0.00 0.00 88 1019.3
20260901041635 75 324 0.0 0.0 0.00 0.00 0.00 88 1019.4
20260901041123 75 324 0.0 0.0 0.00 0.00 0.00 88 1019.3
20260901040634 75 324 0.0 0.0 0.00 0.00 0.00 88 1019.3
20260901040122 74 324 0.0 0.0 0.00 0.00 0.00 89 1019.3
20260901035631 74 324 0.0 0.0 0.00 0.00 0.00 89 1019.3
20260901035140 74 324 0.0 0.0 0.00 0.00 0.00 89 1019.4
20260901034628 74 324 0.0 0.0 0.00 0.00 0.00 89 1019.3
20260901034116 74 324 0.0 0.0 0.00 0.00 0.00 89 1019.5
20260901033622 74 324 0.0 0.0 0.00 0.00 0.00 89 1019.3
20260901033131 74 324 0.0 0.0 0.00 0.00 0.00 89 1019.4
20260901032620 74 324 0.0 0.0 0.00 0.00 0.00 89 1019.5
20260901032147 74 324 0.0 0.0 0.00 0.00 0.00 89 1019.5
20260901031616 74 324 0.0 0.0 0.00 0.00 0.00 88 1019.6
20260901031124 74 324 0.0 0.0 0.00 0.00 0.00 88 1019.6
20260901030614 75 324 0.0 0.0 0.00 0.00 0.00 87 1019.5
20260901030124 75 324 0.0 0.0 0.00 0.00 0.00 87 1019.4
20260901025633 75 324 0.0 0.0 0.00 0.00 0.00 87 1019.3
20260901025121 75 324 0.0 0.0 0.00 0.00 0.00 87 1019.5
20260901024631 75 324 0.0 0.0 0.00 0.00 0.00 86 1019.5
20260901024120 75 324 0.0 0.0 0.00 0.00 0.00 86 1019.4
20260901023629 75 324 0.0 0.0 0.00 0.00 0.00 86 1019.4
20260901023118 75 324 0.0 0.0 0.00 0.00 0.00 87 1019.4
20260901022627 75 324 0.0 0.0 0.00 0.00 0.00 87 1019.5
20260901022115 75 324 0.0 0.0 0.00 0.00 0.00 87 1019.4
20260901021624 75 324 0.0 0.0 0.00 0.00 0.00 87 1019.4
20260901021133 75 324 0.0 0.0 0.00 0.00 0.00 87 1019.3
20260901020622 75 324 0.0 0.0 0.00 0.00 0.00 87 1019.2
20260901020131 75 324 0.0 0.0 0.00 0.00 0.00 87 1019.3
20260901015636 75 324 0.0 0.0 0.00 0.00 0.00 86 1019.3
20260901015125 76 324 0.0 0.0 0.00 0.00 0.00 85 1019.3
20260901014613 76 324 0.0 0.0 0.00 0.00 0.00 84 1019.2
20260901014123 76 324 0.0 0.0 0.00 0.00 0.00 84 1019.3
20260901013632 76 324 0.0 0.0 0.00 0.00 0.00 84 1019.2
20260901013121 76 324 0.0 0.0 0.00 0.00 0.00 84 1019.1
20260901012631 76 324 0.0 0.0 0.00 0.00 0.00 84 1019.1
20260901012120 76 324 0.0 0.0 0.00 0.00 0.00 84 1019.1
20260901011629 76 324 0.0 0.0 0.00 0.00 0.00 84 1019.2
20260901011138 76 324 0.0 0.0 0.00 0.00 0.00 84 1019.1
20260901010627 76 324 0.0 0.0 0.00 0.00 0.00 85 1019.2
20260901010117 76 324 0.0 0.0 0.00 0.00 0.00 84 1019.1
20260901005644 76 324 0.0 0.0 0.00 0.00 0.00 84 1019.0
20260901005113 76 324 0.0 0.0 0.00 0.00 0.00 84 1019.0
20260901004622 76 3 0.0 0.0 0.00 0.00 0.00 83 1019.1
20260901004132 76 3 0.0 0.0 0.00 0.00 0.00 83 1019.1
20260901003620 77 3 0.0 0.0 0.00 0.00 0.00 82 1019.1
20260901003145 77 3 0.0 0.0 0.00 0.00 0.00 83 1019.1
20260901002653 76 3 0.0 0.0 0.00 0.00 0.00 83 1019.1
20260901002121 77 3 0.0 0.0 0.00 0.00 0.00 82 1019.1
20260901001630 77 3 0.0 0.0 0.00 0.00 0.00 82 1019.1
20260901001119 77 3 0.0 0.0 0.00 0.00 0.00 81 1019.1
20260901000628 77 3 0.0 0.0 0.00 0.00 0.00 81 1019.1
20260901000117 77 3 0.0 0.0 0.00 0.00 0.00 80 1019.1
20260831235627 77 3 0.0 0.0 0.00 0.00 0.00 80 1019.0
20260831235115 78 3 0.0 0.0 0.00 0.00 0.00 80 1019.0
20260831234624 78 3 0.0 0.0 0.00 0.00 0.00 79 1018.8
20260831234133 78 3 0.0 0.0 0.00 0.00 0.00 79 1018.8
20260831233623 78 3 0.0 0.0 0.00 0.00 0.00 80 1018.8
20260831233133 78 3 0.0 0.0 0.00 0.00 0.00 80 1018.8
20260831232622 78 3 0.0 0.0 0.00 0.00 0.00 80 1018.9
20260831232131 78 3 0.0 0.0 0.00 0.00 0.00 79 1018.9
20260831231621 78 3 0.0 0.0 0.00 0.00 0.00 79 1018.9
20260831231131 78 3 0.0 0.0 0.00 0.00 0.00 79 1019.0
20260831230619 78 3 0.0 0.0 0.00 0.00 0.00 79 1019.1
20260831230129 78 3 0.0 0.0 0.00 0.00 0.00 79 1019.1
20260831225619 79 3 0.0 0.0 0.00 0.00 0.00 78 1019.2
20260831225127 79 3 0.0 0.0 0.00 0.00 0.00 77 1019.3
20260831224616 79 3 0.0 0.0 0.00 0.00 0.00 76 1019.4
20260831224120 79 3 0.0 0.0 0.00 0.00 0.00 77 1019.4
20260831223650 79 3 0.0 0.0 0.00 0.00 0.00 76 1019.6
20260831223118 80 3 0.0 0.0 0.00 0.00 0.00 76 1019.6
20260831222647 80 3 0.0 0.0 0.00 0.00 0.00 76 1019.6
20260831222135 80 3 0.0 0.0 0.00 0.00 0.00 76 1019.6
20260831221623 80 3 0.0 0.0 0.00 0.00 0.00 75 1019.6
20260831221131 80 3 0.0 0.0 0.00 0.00 0.00 75 1019.7
20260831220619 80 3 0.0 0.0 0.00 0.00 0.00 74 1019.7
20260831220129 80 3 0.0 0.0 0.00 0.00 0.00 74 1019.6
20260831215618 80 3 0.0 0.0 0.00 0.00 0.00 74 1019.7
20260831215146 80 3 0.0 0.0 0.00 0.00 0.00 74 1019.7
20260831214615 80 3 0.0 0.0 0.00 0.00 0.00 74 1019.7
20260831214124 80 3 0.0 0.0 0.00 0.00 0.00 72 1019.7
20260831213632 81 3 0.0 0.0 0.00 0.00 0.00 71 1019.7
20260831213122 81 3 0.0 0.0 0.00 0.00 0.00 70 1019.6
20260831212626 81 3 0.0 0.0 0.00 0.00 0.00 70 1019.6
20260831212116 82 3 0.0 0.0 0.00 0.00 0.00 69 1019.6
20260831211625 82 3 0.0 0.0 0.00 0.00 0.00 70 1019.6
20260831211154 82 3 0.0 0.0 0.00 0.00 0.00 70 1019.6
20260831210622 82 3 0.0 0.0 0.00 0.00 0.00 71 1019.6
20260831210130 82 3 0.0 0.0 0.00 0.00 0.00 70 1019.6